| time (UTC) | temp F | wind direction | speed knots | gust knots | rain 1hr in | rain 24hr in | rain mn in | humidity % | barometer mb |
| 20260502123017 | 37 | 304 | 0.0 | 0.0 | 0.00 | 0.00 | 0.00 | 82 | 1010.4 |
| 20260502121534 | 37 | 304 | 0.0 | 0.0 | 0.00 | 0.00 | 0.00 | 82 | 1010.3 |
| 20260502114513 | 37 | 304 | 0.0 | 0.0 | 0.00 | 0.00 | 0.00 | 80 | 1010.3 |
| 20260502113011 | 38 | 304 | 0.0 | 0.0 | 0.00 | 0.00 | 0.00 | 80 | 1010.2 |
| 20260502111510 | 38 | 304 | 0.0 | 0.0 | 0.00 | 0.00 | 0.00 | 79 | 1010.2 |
| 20260502110009 | 38 | 304 | 0.0 | 0.0 | 0.00 | 0.00 | 0.00 | 80 | 1010.3 |
| 20260502104507 | 38 | 304 | 0.0 | 0.0 | 0.00 | 0.00 | 0.00 | 80 | 1010.3 |
| 20260502103006 | 38 | 304 | 0.0 | 0.0 | 0.00 | 0.00 | 0.00 | 80 | 1010.1 |
| 20260502101508 | 39 | 304 | 0.0 | 0.0 | 0.00 | 0.00 | 0.00 | 79 | 1010.1 |
| 20260502070036 | 43 | 303 | 0.0 | 0.0 | 0.00 | 0.00 | 0.00 | 71 | 1009.7 |
| 20260502064535 | 44 | 302 | 0.0 | 0.0 | 0.00 | 0.00 | 0.00 | 70 | 1009.6 |
| 20260502063032 | 44 | 302 | 0.0 | 0.0 | 0.00 | 0.00 | 0.00 | 68 | 1009.5 |
| 20260502061527 | 45 | 303 | 0.0 | 0.0 | 0.00 | 0.00 | 0.00 | 67 | 1009.4 |
| 20260502060024 | 45 | 303 | 0.0 | 0.9 | 0.00 | 0.00 | 0.00 | 66 | 1009.2 |
| 20260502054532 | 46 | 303 | 0.0 | 0.0 | 0.00 | 0.00 | 0.00 | 66 | 1009.3 |
| 20260502053022 | 47 | 302 | 0.0 | 0.9 | 0.00 | 0.00 | 0.00 | 64 | 1009.1 |
| 20260502051521 | 47 | 303 | 0.0 | 0.9 | 0.00 | 0.00 | 0.00 | 62 | 1009.1 |
| 20260502050029 | 48 | 302 | 0.0 | 0.9 | 0.00 | 0.00 | 0.00 | 61 | 1009.0 |
| 20260502044520 | 48 | 303 | 0.0 | 0.0 | 0.00 | 0.00 | 0.00 | 58 | 1009.1 |
| 20260502043020 | 49 | 302 | 0.0 | 0.9 | 0.00 | 0.00 | 0.00 | 57 | 1009.0 |
| 20260502041520 | 49 | 303 | 0.0 | 0.9 | 0.00 | 0.00 | 0.00 | 54 | 1009.0 |
| 20260502040019 | 50 | 303 | 0.0 | 0.0 | 0.00 | 0.00 | 0.00 | 51 | 1008.9 |
| 20260502034519 | 52 | 303 | 0.0 | 0.0 | 0.00 | 0.00 | 0.00 | 47 | 1008.6 |
| 20260502033017 | 53 | 303 | 0.0 | 0.0 | 0.00 | 0.00 | 0.00 | 44 | 1008.4 |
| 20260502031521 | 54 | 303 | 0.0 | 0.0 | 0.00 | 0.00 | 0.00 | 40 | 1008.3 |
| 20260502030017 | 56 | 302 | 0.0 | 0.0 | 0.00 | 0.00 | 0.00 | 35 | 1007.9 |
| 20260502024516 | 58 | 302 | 0.0 | 0.9 | 0.00 | 0.00 | 0.00 | 32 | 1007.8 |
| 20260502023015 | 60 | 302 | 0.0 | 0.0 | 0.00 | 0.00 | 0.00 | 29 | 1007.6 |
| 20260502021516 | 63 | 300 | 0.0 | 1.7 | 0.00 | 0.00 | 0.00 | 28 | 1007.4 |
| 20260502020014 | 65 | 297 | 0.9 | 3.5 | 0.00 | 0.00 | 0.00 | 26 | 1007.2 |
| 20260502014525 | 66 | 307 | 0.0 | 4.3 | 0.00 | 0.00 | 0.00 | 27 | 1007.0 |
| 20260502013014 | 67 | 325 | 2.6 | 7.0 | 0.00 | 0.00 | 0.00 | 26 | 1006.9 |
| 20260502011513 | 67 | 306 | 0.9 | 3.5 | 0.00 | 0.00 | 0.00 | 27 | 1006.9 |
| 20260502010013 | 67 | 315 | 0.9 | 4.3 | 0.00 | 0.00 | 0.00 | 27 | 1007.0 |
| 20260502004525 | 66 | 290 | 0.9 | 2.6 | 0.00 | 0.00 | 0.00 | 27 | 1007.0 |
| 20260502003009 | 65 | 302 | 2.6 | 7.0 | 0.00 | 0.00 | 0.00 | 27 | 1007.1 |
| 20260502001509 | 66 | 287 | 0.9 | 5.2 | 0.00 | 0.00 | 0.00 | 27 | 1007.2 |
| 20260502000009 | 66 | 311 | 1.7 | 6.1 | 0.00 | 0.00 | 0.00 | 27 | 1007.3 |
| 20260501234508 | 66 | 311 | 1.7 | 5.2 | 0.00 | 0.00 | 0.00 | 26 | 1007.2 |
| 20260501233007 | 66 | 300 | 1.7 | 6.1 | 0.00 | 0.00 | 0.00 | 26 | 1007.2 |
| 20260501231506 | 67 | 303 | 1.7 | 4.3 | 0.00 | 0.00 | 0.00 | 25 | 1007.3 |
| 20260501230004 | 67 | 305 | 2.6 | 7.8 | 0.00 | 0.00 | 0.00 | 26 | 1007.3 |
| 20260501224503 | 68 | 290 | 2.6 | 5.2 | 0.00 | 0.00 | 0.00 | 23 | 1007.6 |
| 20260501223108 | 68 | 303 | 1.7 | 4.3 | 0.00 | 0.00 | 0.00 | 24 | 1007.7 |
| 20260501221601 | 68 | 293 | 0.0 | 5.2 | 0.00 | 0.00 | 0.00 | 23 | 1007.8 |
| 20260501220106 | 69 | 297 | 0.9 | 4.3 | 0.00 | 0.00 | 0.00 | 23 | 1008.0 |
| 20260501214559 | 68 | 314 | 1.7 | 6.1 | 0.00 | 0.00 | 0.00 | 24 | 1008.3 |
| 20260501213110 | 68 | 308 | 0.9 | 4.3 | 0.00 | 0.00 | 0.00 | 23 | 1008.3 |
| 20260501211556 | 69 | 302 | 0.9 | 4.3 | 0.00 | 0.00 | 0.00 | 22 | 1008.4 |
| 20260501210057 | 68 | 274 | 0.0 | 7.8 | 0.00 | 0.00 | 0.00 | 25 | 1008.4 |
| 20260501204555 | 68 | 294 | 0.0 | 6.1 | 0.00 | 0.00 | 0.00 | 23 | 1008.5 |
| 20260501203058 | 68 | 304 | 0.0 | 5.2 | 0.00 | 0.00 | 0.00 | 24 | 1008.5 |
| 20260501201553 | 68 | 270 | 3.5 | 7.8 | 0.00 | 0.00 | 0.00 | 22 | 1008.6 |
| 20260501200051 | 68 | 300 | 2.6 | 6.1 | 0.00 | 0.00 | 0.00 | 21 | 1008.6 |
| 20260501194555 | 67 | 291 | 0.9 | 5.2 | 0.00 | 0.00 | 0.00 | 24 | 1008.7 |
| 20260501193049 | 67 | 293 | 0.9 | 6.1 | 0.00 | 0.00 | 0.00 | 20 | 1008.8 |
| 20260501191548 | 68 | 302 | 1.7 | 6.1 | 0.00 | 0.00 | 0.00 | 22 | 1008.9 |
| 20260501190046 | 66 | 305 | 0.9 | 6.1 | 0.00 | 0.00 | 0.00 | 25 | 1009.1 |
| 20260501184545 | 67 | 327 | 0.9 | 5.2 | 0.00 | 0.00 | 0.00 | 22 | 1009.2 |
| 20260501183050 | 67 | 295 | 0.0 | 6.1 | 0.00 | 0.00 | 0.00 | 21 | 1009.5 |
| 20260501181540 | 66 | 299 | 1.7 | 5.2 | 0.00 | 0.00 | 0.00 | 23 | 1009.6 |
| 20260501180040 | 65 | 314 | 0.0 | 3.5 | 0.00 | 0.00 | 0.00 | 25 | 1009.8 |
| 20260501174545 | 64 | 305 | 1.7 | 3.5 | 0.00 | 0.00 | 0.00 | 26 | 1009.8 |
| 20260501173035 | 63 | 335 | 0.9 | 4.3 | 0.00 | 0.00 | 0.00 | 25 | 1010.1 |
| 20260501171530 | 62 | 312 | 0.9 | 5.2 | 0.00 | 0.00 | 0.00 | 28 | 1010.0 |
| 20260501170028 | 61 | 309 | 0.0 | 3.5 | 0.00 | 0.00 | 0.00 | 33 | 1010.1 |
| 20260501164540 | 61 | 295 | 0.0 | 2.6 | 0.00 | 0.00 | 0.00 | 35 | 1010.2 |
| 20260501163023 | 60 | 300 | 0.0 | 1.7 | 0.00 | 0.00 | 0.00 | 35 | 1010.2 |
| 20260501161522 | 58 | 300 | 0.0 | 2.6 | 0.00 | 0.00 | 0.00 | 37 | 1010.3 |
| 20260501160020 | 56 | 329 | 0.9 | 2.6 | 0.00 | 0.00 | 0.00 | 38 | 1010.3 |
| 20260501154529 | 56 | 315 | 0.0 | 2.6 | 0.00 | 0.00 | 0.00 | 39 | 1010.3 |
| 20260501153027 | 56 | 287 | 0.0 | 0.9 | 0.00 | 0.00 | 0.00 | 39 | 1010.3 |
| 20260501151516 | 57 | 277 | 0.0 | 0.9 | 0.00 | 0.00 | 0.00 | 39 | 1010.4 |